RH
50 55 61 65 69 82 86 87 87 89 90 88 88 90 92 92 88 88 87 78 75 75 75 74 74 73 75 76 77 80 82 87 84 68 75 72 76 79 64 63 66 69 74
57 59 61 66 68 73 82 86 90 92 91 87 87 90 89 86 79 72 72 72 71 71 71 76 77 61 75 78 81 81 80 81 84 88 77 77 76 72 66 69 55 45 63
60 63 64 67 70 71 75 82 90 92 91 89 90 91 88 79 70 70 71 70 71 74 77 78 78 74 76 80 80 82 83 78 88 88 83 78 75 73 70 71 66 68 54
58 61 68 71 72 75 80 84 88 90 92 93 89 88 84 74 67 65 67 71 74 74 77 79 79 77 77 78 77 77 75 81 80 81 81 79 81 74 76 75 74 70 66
56 65 71 75 74 76 78 81 88 92 91 94 96 95 88 66 58 70 72 76 80 81 81 77 77 76 74 72 70 76 76 81 77 80 81 78 78 81 80 73 75 74 75
56 70 74 76 76 78 81 85 92 95 95 92 96 98 78 60 75 75 83 91 88 88 91 85 83 77 80 71 70 70 70 79 86 83 83 84 78 80 79 80 82 86 90
60 68 76 79 82 85 87 92 95 94 92 91 88 81 77 75 74 74 84 85 86 86 80 78 72 61 72 74 76 76 76 77 79 89 95 89 88 80 83 86 88 87 87
65 72 78 80 85 90 93 94 91 91 93 90 85 80 76 75 76 81 82 84 84 80 76 76 78 80 78 73 76 85 82 76 76 76 78 79 81 79 85 84 91 92 90
66 74 76 82 92 94 95 95 95 96 96 90 83 79 80 83 70 72 75 90 82 79 72 75 75 79 79 79 94 92 83 78 69 72 80 78 77 78 77 89 93 96 95
70 73 81 90 93 94 95 95 97 88 85 86 78 80 79 79 71 66 71 96 96 87 82 75 78 76 76 72 90 96 95 84 86 86 85 82 80 84 83 85 90 91 85
76 78 88 86 91 93 95 84 86 88 91 96 94 87 87 82 85 68 66 94 92 90 86 85 83 81 71 73 78 93 95 92 90 91 88 91 95 95 95 94 92 92 91
90 92 93 95 94 87 95 83 80 99 92 97 97 95 94 94 75 75 69 74 74 96 92 90 90 71 69 73 80 86 87 92 94 93 91 88 92 92 92 96 97 94 88
93 83 80 91 96 91 76 83 89 91 96 96 98 98 97 91 94 80 76 80 76 94 90 76 73 72 75 84 76 82 90 92 93 93 92 89 90 91 91 91 93 99 97
81 89 92 97 95 97 98 93 97 98 98 98 98 98 98 95 97 95 93 97 84 85 91 90 93 88 89 86 84 85 91 92 94 93 92 90 88 90 92 93 93 95 96
92 92 96 98 98 98 94 92 94 93 92 96 96 97 100 100 96 90 85 96 95 91 94 96 95 93 91 88 86 84 85 82 87 92 92 90 88 89 91 94 92 92 94
89 91 93 100 100 98 98 94 81 84 84 83 87 94 98 91 85 81 66 65 63 67 90 100 100 100 100 95 94 91 86 82 86 88 91 89 90 91 91 91 90 93 93
95 95 99 98 99 98 96 96 97 87 79 83 79 80 78 92 88 73 65 65 63 72 96 98 100 100 100 96 95 91 93 85 84 88 92 92 91 90 93 92 92 90 90
96 98 99 99 99 97 96 96 97 98 98 98 85 85 84 83 80 71 65 76 94 90 95 98 99 100 100 95 95 93 90 90 88 90 94 95 96 94 92 91 92 96 92
92 96 98 99 100 99 96 94 97 98 98 97 98 93 98 95 82 80 77 96 97 97 95 95 97 98 98 96 100 100 99 96 94 96 95 94 97 95 93 92 92 94 94
87 89 91 98 98 97 93 97 97 97 97 98 99 97 98 98 100 98 100 100 100 98 97 96 94 96 98 98 100 100 99 98 95 92 96 97 97 96 96 96 96 94 88
84 82 92 96 98 96 97 95 95 97 97 98 97 96 95 97 95 99 99 100 100 99 98 96 97 98 98 99 96 99 98 100 96 94 95 94 97 97 94 93 93 89 85
97 94 96 96 94 97 96 95 97 97 97 98 96 97 98 98 99 99 99 98 97 97 97 97 96 95 96 95 96 100 99 99 99 96 96 95 94 94 93 93 93 92 88
98 98 97 92 94 95 96 95 95 96 96 97 97 98 99 99 99 98 98 97 98 98 98 98 98 97 98 98 98 97 98 96 96 99 98 98 95 94 95 93 92 91 91
98 96 97 96 95 96 96 94 95 96 95 96 96 97 97 97 98 98 98 97 98 99 100 98 97 96 96 99 99 98 96 98 97 96 98 98 96 91 93 90 90 91 90
97 97 97 96 96 96 96 96 96 96 96 96 95 96 96 97 98 98 98 98 99 100 97 100 99 96 93 93 96 96 98 96 92 96 98 97 95 92 94 90 91 89 89
97 97 97 97 97 96 96 96 96 96 96 96 95 95 95 96 96 97 97 97 98 98 96 97 98 96 94 96 94 98 97 89 93 98 98 95 91 90 93 92 88 91 88
Wind_Speed
4 4 5 6 6 5 6 6 6 4 4 5 6 5 5 6 5 4 4 1 2 1 2 3 5 4 3 4 4 3 5 4 10 9 4 6 7 9 6 4 4 4 4
4 5 6 6 5 6 6 7 5 7 6 6 5 5 5 5 5 3 2 2 1 2 4 5 5 5 5 5 3 6 6 6 7 13 10 6 6 6 5 4 5 5 3
5 5 6 6 5 6 6 6 6 6 6 7 5 4 4 3 2 2 2 1 1 3 4 5 5 5 7 5 6 6 6 7 7 8 10 3 3 3 4 4 4 3 5
5 5 4 5 5 6 6 7 6 6 5 5 3 2 3 3 2 3 0 2 4 4 4 5 6 7 8 8 8 7 6 6 8 9 8 8 5 5 3 5 5 3 5
5 4 4 5 5 6 7 7 6 5 3 4 4 5 5 3 2 2 3 4 5 5 5 6 6 10 19 16 9 6 7 7 8 9 8 8 7 6 6 3 4 4 5
6 4 4 5 6 7 7 7 4 4 5 5 2 2 3 2 2 2 5 4 5 6 7 7 7 13 12 16 19 20 16 11 11 9 8 9 10 7 7 6 5 3 4
5 5 5 5 6 7 6 6 5 4 2 2 3 1 3 3 4 6 7 4 4 5 7 8 10 8 14 10 15 18 17 20 16 11 11 8 10 8 8 9 7 6 6
6 6 6 6 6 6 6 6 4 3 3 3 1 3 3 2 4 5 5 3 4 6 8 9 9 10 9 13 11 11 12 12 12 9 10 10 10 9 9 9 9 7 6
7 7 6 5 5 6 6 7 5 4 3 2 3 3 3 2 5 4 4 3 5 7 9 9 9 8 14 20 12 9 11 11 12 18 19 19 19 19 16 7 8 8 4
7 7 5 5 5 6 6 7 4 2 2 3 3 2 2 1 4 4 6 1 3 5 7 8 13 13 17 18 9 8 9 9 10 10 10 11 13 11 15 8 6 9 6
8 7 5 4 5 6 6 3 1 2 3 2 1 1 0 1 2 5 8 1 3 5 6 7 6 17 19 17 16 8 11 11 10 8 8 7 5 6 6 7 8 8 8
6 6 5 5 5 5 6 5 2 1 2 1 2 3 2 3 4 5 8 10 10 2 6 6 7 17 17 16 11 17 16 10 6 6 6 6 6 6 6 5 6 9 9
6 9 10 9 6 5 2 3 1 1 1 1 1 2 3 3 3 8 9 10 8 3 4 10 14 14 14 9 14 15 10 7 7 6 7 7 7 7 8 7 6 3 8
8 7 5 5 5 3 2 1 1 1 1 1 2 3 3 3 3 3 3 3 6 4 5 4 5 7 6 6 7 8 6 6 7 7 7 7 6 7 6 5 3 4 2
6 7 4 3 2 1 1 0 0 2 3 3 3 3 3 4 4 5 5 1 2 2 2 3 3 4 5 5 6 6 6 7 7 7 7 7 7 7 6 6 4 3 3
8 6 5 2 2 2 2 3 5 8 8 9 11 7 3 9 6 8 6 4 6 7 3 2 3 3 3 5 5 6 5 7 7 7 6 7 7 7 7 6 5 4 4
7 7 3 3 3 3 3 2 2 5 5 8 8 8 7 7 8 7 4 2 3 3 1 2 2 3 3 4 4 5 5 6 8 6 6 7 7 6 7 6 6 6 4
5 7 3 3 4 3 3 3 3 2 3 3 6 4 7 7 8 6 4 1 2 2 1 2 3 3 3 3 4 4 5 5 5 6 5 5 6 6 6 6 6 4 5
5 4 3 3 3 3 3 4 3 2 4 4 3 4 4 8 9 6 2 3 3 2 2 3 3 3 3 3 3 3 3 4 3 4 4 5 5 5 5 6 6 6 5
6 6 5 3 4 3 4 3 3 3 4 4 3 4 2 1 1 3 2 3 3 4 3 4 4 3 3 3 3 3 3 3 4 4 4 4 4 4 5 5 5 5 5
5 4 5 3 3 4 4 4 4 4 4 4 5 4 6 4 6 5 4 4 4 4 4 4 3 3 3 3 3 2 3 3 3 4 4 4 4 4 5 4 4 5 5
5 5 4 5 4 4 5 4 4 4 5 4 5 4 5 3 4 5 5 5 5 5 4 4 4 4 4 3 3 2 3 3 3 3 4 4 4 4 4 4 4 3 5
5 6 6 6 6 6 5 5 5 5 5 5 5 4 3 5 5 6 6 5 4 4 4 4 4 3 3 4 4 4 3 3 3 2 3 4 4 4 4 3 4 3 4
7 8 8 8 6 6 7 8 7 8 7 6 5 5 5 5 5 6 6 5 4 4 4 4 5 6 4 3 3 4 3 3 3 3 4 3 4 5 3 3 4 3 3
7 8 8 9 9 9 8 9 8 8 7 6 6 6 6 5 5 5 5 4 4 4 5 5 4 6 7 7 5 6 4 4 3 4 3 4 4 4 3 2 2 3 3
8 8 8 8 8 8 8 8 8 8 8 7 7 7 7 6 5 5 4 4 4 5 5 4 6 9 8 6 6 6 5 4 3 4 2 2 2 3 2 2 4 2 3
Wind_Direction
282 309 309 316 322 301 273 267 258 276 273 269 253 253 251 246 251 255 251 242 99 56 2 344 306 307 301 312 308 290 281 253 272 291 267 285 280 269 264 270 275 289 305
326 330 321 308 320 310 300 289 279 255 253 254 261 256 253 253 257 250 201 108 86 308 311 310 295 320 302 284 278 280 275 266 269 285 289 279 266 265 257 269 270 284 289
349 341 331 329 322 306 302 299 286 273 261 257 261 278 292 306 243 145 134 129 323 311 301 295 298 300 289 280 277 274 269 275 271 279 288 270 265 271 284 269 266 275 277
349 329 320 331 332 322 316 318 298 270 286 314 321 333 347 299 39 69 99 309 305 292 291 286 280 280 281 279 276 266 278 286 283 274 275 283 272 269 252 259 275 267 275
318 322 330 329 327 334 329 313 327 348 356 3 343 355 341 117 114 180 309 303 307 301 293 289 284 287 299 298 296 288 292 282 283 282 278 277 277 266 260 255 251 276 280
327 314 309 337 338 316 313 323 334 330 319 321 352 245 227 36 151 320 319 319 328 322 316 309 301 303 293 302 308 301 294 288 279 276 276 270 269 262 257 258 260 269 284
315 302 314 323 309 306 312 317 321 329 324 329 318 290 71 53 19 342 26 23 349 326 315 310 307 309 314 301 298 295 292 286 278 279 275 279 272 266 262 259 247 241 245
308 307 301 306 299 302 310 295 271 242 278 260 293 138 106 66 29 53 33 3 332 315 308 302 302 304 299 302 296 291 286 285 280 274 266 261 256 257 254 262 256 244 244
304 287 289 298 310 319 315 308 300 270 278 240 165 146 90 45 8 43 12 341 326 311 309 307 302 310 304 310 315 320 308 297 299 296 287 276 268 267 263 257 263 237 229
312 299 297 315 327 320 305 303 290 290 176 130 122 86 138 67 348 352 348 273 300 304 311 307 310 318 317 329 331 322 309 319 321 313 308 278 271 265 265 252 247 256 262
317 311 304 326 337 305 305 285 248 145 130 103 87 36 235 164 293 323 328 237 274 307 320 314 314 317 327 333 337 323 324 334 319 314 315 318 296 260 250 237 224 222 232
331 329 337 328 307 304 296 295 230 302 127 70 9 318 285 270 280 299 317 326 325 296 308 309 302 327 332 340 340 338 349 338 324 323 323 327 329 326 320 309 239 219 222
341 333 328 310 297 299 341 24 54 74 126 265 253 286 282 275 268 286 303 315 327 315 307 323 337 337 339 337 342 352 350 341 340 338 337 332 325 315 311 308 304 266 229
318 304 305 304 303 301 336 326 315 247 268 267 269 265 274 281 269 270 276 291 313 328 321 323 322 332 326 329 343 346 343 349 341 336 331 325 319 328 323 325 317 339 347
303 294 297 287 312 55 308 222 52 276 215 222 240 220 218 278 248 235 288 233 296 303 352 349 346 342 345 343 347 348 346 351 347 338 338 337 338 339 337 348 353 346 11
304 303 305 262 236 230 253 278 235 244 271 262 254 218 262 235 251 273 316 339 345 2 23 348 320 325 329 332 343 343 349 349 342 338 341 346 343 341 344 352 2 8 8
283 296 283 255 232 238 236 238 272 301 291 277 273 277 278 229 233 268 291 308 339 37 67 307 279 298 302 322 332 340 342 343 336 342 343 346 345 343 348 357 1 6 4
280 261 255 260 247 243 259 258 246 220 260 288 291 257 268 248 238 266 272 60 345 7 196 245 273 280 303 319 330 337 333 339 342 342 342 340 344 341 350 359 3 350 343
251 250 240 246 247 239 250 265 252 250 249 250 289 304 280 272 260 272 276 179 208 238 236 250 247 271 285 304 305 314 307 325 323 328 330 338 338 342 348 349 347 342 338
261 248 237 223 232 238 250 243 259 250 259 260 256 247 269 190 301 262 234 189 210 234 233 240 256 256 261 276 287 297 315 330 329 332 329 324 330 332 337 336 337 341 340
261 255 250 260 245 246 236 249 247 238 249 253 250 237 215 221 247 222 226 213 221 226 226 225 236 244 248 256 274 289 312 306 318 323 326 326 325 336 334 330 332 339 340
245 248 244 246 248 250 246 243 244 240 242 242 260 266 239 211 237 240 230 229 224 219 208 201 218 217 223 229 245 236 272 289 301 314 316 319 324 329 336 334 342 344 347
239 234 235 234 234 241 247 242 241 241 247 244 242 250 234 237 233 237 236 233 219 221 206 193 207 235 229 227 221 219 235 273 271 257 296 314 322 329 335 335 338 346 3
267 255 245 244 245 233 235 242 240 239 242 239 242 240 238 238 236 237 233 228 216 221 199 198 200 211 220 227 231 226 234 251 266 267 269 288 307 326 333 340 347 345 350
264 266 258 252 249 243 241 239 239 236 237 234 238 235 237 235 238 239 234 219 212 203 213 202 203 211 220 225 231 225 235 279 277 279 276 272 293 318 323 337 343 341 4
268 265 261 259 256 249 247 245 242 239 234 231 231 232 229 230 234 238 230 206 207 210 212 200 204 210 210 217 220 211 226 260 281 294 289 277 292 337 341 343 355 1 13